Location: El Águila
(10.4167°N, 66.7167°W)
Time: 05:08:57
(UTC+00:00)

Cosmos 2322 Rocket - Pass Details

Date: 02 October 2022
Orbit: 833 x 850 km, 71.0° (Epoch: 26 November)

Event Time Altitude Azimuth Distance (km) Brightness Sun altitude
Rises 23:40:54 0° 209° (SSW) 3,391 5.7 -21.5°
Reaches altitude 10° 23:43:26 10° 215° (SW) 2,459 5.0 -22.2°
Maximum altitude 23:48:48 45° 287° (WNW) 1,141 3.3 -23.5°
Drops below altitude 10° 23:54:11 10° 359° (N) 2,466 4.6 -24.8°
Sets 23:56:44 0° 5° (N) 3,402 5.3 -25.4°
